Location: Corralito
(10.2667°N, 66.9500°W)
Time: 17:35:01
(UTC+00:00)

SL-16 R/B - Pass Details

Date: 23 March 2023
Orbit: 843 x 845 km, 71.0° (Epoch: 08 June)

Event Time Altitude Azimuth Distance (km) Brightness Sun altitude
Rises 22:47:50 0° 350° (N) 3,391 5.5 -3.1°
Reaches altitude 10° 22:50:18 10° 354° (N) 2,457 4.7 -3.7°
Maximum altitude 22:55:52 62° 74° (ENE) 947 2.3 -5.1°
Drops below altitude 10° 23:01:26 10° 154° (SSE) 2,459 4.3 -6.4°
Sets 23:03:54 0° 157° (SSE) 3,394 5.1 -7.1°
